GFSFLT1_500_rhum_000.txt.gz
RH
23 14 6 10 13 13 13 13 14 13 12 11 10 8 10 10 8 6 3 4 12 15 17 14 18 16 16 16 15 15 15 17 18
30 30 28 20 14 12 13 14 14 13 10 6 5 7 9 9 10 10 6 4 8 14 17 16 15 15 16 16 14 13 12 13 15
33 33 31 30 30 27 26 25 25 26 26 19 13 11 10 11 12 14 15 15 14 14 15 16 16 17 20 21 21 21 21 20 17
32 33 34 36 38 39 39 36 34 32 30 29 29 28 24 16 14 13 13 13 13 14 17 19 21 24 26 28 27 27 26 25 24
29 31 33 34 35 35 37 40 41 39 36 32 29 25 23 23 23 22 22 22 24 26 27 28 27 28 27 24 18 10 8 6 10
36 32 30 30 27 24 23 24 24 25 26 26 25 25 25 26 25 25 25 24 23 18 12 7 5 5 5 6 7 7 7 7 9
44 42 39 33 30 32 31 28 26 25 22 19 17 14 14 13 12 10 8 4 2 3 5 5 8 13 19 23 23 22 21 18 15
46 45 40 39 37 32 31 31 31 33 31 28 25 21 13 6 3 3 3 5 7 12 20 26 30 31 34 34 36 35 32 30 28
48 47 44 41 38 36 33 32 33 28 20 14 11 11 8 6 6 7 16 21 24 28 32 30 32 33 32 31 28 25 22 18 15
45 42 44 46 42 40 38 38 24 12 9 10 16 18 19 19 23 29 32 32 32 32 32 30 26 23 19 17 14 13 12 11 8
33 33 47 48 43 40 35 22 14 11 15 22 33 39 40 40 37 35 33 32 30 27 23 20 18 17 16 16 16 16 16 15 15
42 46 52 48 42 39 33 32 20 12 13 18 27 36 37 35 32 30 24 21 20 19 19 18 18 18 17 16 15 14 12 12 12
51 53 50 44 46 48 44 32 16 11 21 34 40 41 40 37 33 27 23 22 21 20 18 17 16 16 16 16 15 15 15 15 14
50 49 52 50 50 44 31 18 10 12 36 50 46 40 36 33 30 26 23 20 19 18 20 20 21 22 22 22 22 22 22 21 20
48 51 56 52 42 26 18 10 10 19 41 44 35 30 28 25 22 21 20 20 21 23 25 27 27 27 27 26 26 25 24 24 24
51 53 51 38 20 12 11 11 21 36 40 34 29 26 24 21 20 21 24 26 29 29 28 28 28 28 28 29 29 29 29 29 30
48 45 30 13 11 11 16 44 44 40 36 29 26 22 24 26 29 31 32 32 33 33 34 34 34 35 35 36 34 32 30 28 27
29 15 10 11 17 42 52 43 33 30 28 28 31 33 32 32 33 34 33 32 33 34 34 34 33 32 32 30 28 24 21 17 14
12 12 16 34 57 46 38 35 28 28 31 33 33 32 32 32 31 30 32 31 31 32 33 30 25 21 17 13 9 7 6 5 5
14 21 48 62 43 38 32 29 30 32 34 34 33 34 33 31 27 24 24 27 28 23 19 15 11 8 7 7 7 7 6 6 5

GFSFLT1_500_rhum_003.txt.gz
RH
29 30 28 22 12 11 14 14 13 13 14 13 12 10 9 8 7 9 10 9 7 4 3 11 14 16 16 18 16 18 17 15 15
31 29 29 30 29 29 24 20 18 17 16 16 16 14 11 9 9 10 10 11 11 8 5 8 14 16 18 18 16 15 15 14 12
34 35 36 36 36 35 34 32 31 30 29 28 28 29 28 26 20 13 11 12 13 14 14 12 11 12 13 15 15 16 18 20 21
29 28 31 34 34 34 34 36 39 41 42 40 37 34 31 29 27 26 25 18 13 13 14 13 14 14 16 18 20 23 26 27 28
38 38 37 33 31 31 28 27 26 27 29 29 32 34 34 32 28 26 23 21 21 22 24 26 28 29 29 29 28 25 24 24 22
40 42 44 43 41 37 33 32 32 31 27 23 22 19 15 13 16 18 20 20 20 18 16 13 10 6 5 4 5 6 6 7 8
38 40 39 41 44 42 36 33 32 31 31 30 30 30 27 24 17 9 6 5 4 3 3 3 4 6 10 12 18 16 20 19 24
42 47 48 48 47 46 42 38 35 35 32 31 27 16 11 12 13 12 9 6 4 6 11 18 23 27 30 30 33 32 33 31 33
46 46 52 46 38 40 46 44 36 34 31 22 14 11 9 12 17 18 17 16 18 24 28 32 32 33 33 33 31 31 30 29 27
49 50 46 36 40 46 50 46 42 38 28 25 16 14 16 26 36 42 41 40 38 35 32 30 28 27 25 24 21 20 19 16 14
50 49 42 46 48 48 46 43 43 45 44 30 17 13 18 27 35 36 36 34 32 30 29 26 22 19 18 18 18 17 17 17 16
50 41 45 48 46 47 49 51 54 49 31 20 14 17 28 38 43 43 41 38 34 28 23 21 20 20 19 18 18 17 16 17 16
50 47 51 51 49 52 53 51 43 31 23 17 13 19 35 45 47 44 39 35 33 30 27 24 21 19 19 20 21 22 24 23 24
53 56 53 46 48 48 43 39 32 25 21 17 16 31 45 43 37 34 30 28 25 23 21 21 21 23 25 27 28 29 28 28 28
32 52 49 47 46 44 37 23 13 10 11 15 27 42 39 35 31 28 25 23 22 26 30 31 32 32 31 30 30 29 29 29 28
41 43 42 39 31 18 11 11 10 15 46 50 43 41 37 31 27 27 32 34 35 34 34 34 32 32 31 31 30 30 31 30 30
45 38 27 18 13 15 19 15 35 51 49 45 37 30 30 33 37 37 36 36 37 36 35 34 33 33 34 34 32 29 26 24 20
48 39 21 15 18 21 20 50 55 47 43 36 38 42 41 40 40 41 40 38 36 35 34 34 33 29 23 18 17 16 15 12 10
43 22 16 18 24 23 49 58 43 35 38 43 40 43 45 42 40 42 39 35 32 30 28 25 22 20 19 18 15 12 11 10 9
26 15 16 22 25 53 59 40 36 44 44 46 49 47 45 47 45 36 31 31 30 28 24 19 16 16 15 14 12 12 11 10 9

GFSFLT1_500_rhum_009.txt.gz
RH
22 23 25 28 27 28 30 29 27 26 24 20 17 16 16 17 19 21 24 24 24 20 14 10 11 12 13 11 5 8 18 22 22
31 32 30 32 32 33 34 34 33 33 33 33 34 33 32 32 32 31 32 32 31 30 29 28 21 13 14 16 16 11 9 16 20
32 31 32 33 34 34 34 33 33 33 33 33 32 32 32 34 35 36 38 38 38 38 36 34 29 25 23 16 15 15 15 15 14
34 36 38 38 38 38 37 36 37 37 35 32 31 31 31 31 30 28 27 26 25 22 21 22 27 27 25 23 24 23 22 20 19
37 38 40 39 37 34 32 31 33 34 34 38 38 32 30 29 28 25 24 24 24 26 27 23 16 12 13 16 18 18 19 20 22
36 39 42 39 35 36 39 40 39 40 40 38 36 37 32 27 26 23 18 17 15 10 13 21 23 22 16 8 6 5 5 5 4
37 41 42 42 38 38 43 46 39 32 36 30 36 39 33 29 27 25 19 13 10 10 9 10 10 11 11 11 9 8 9 16 19
42 44 49 46 39 45 50 47 31 34 37 39 42 37 31 35 35 27 21 18 18 12 10 14 19 30 31 31 33 32 30 31 31
58 53 55 53 45 45 49 45 32 37 43 46 45 45 43 37 30 27 26 24 20 21 21 17 19 19 23 29 31 31 30 28 28
62 68 60 62 49 43 49 42 35 40 43 50 50 49 43 38 34 29 25 23 20 20 26 30 32 36 37 38 39 38 35 31 27
68 62 60 58 50 51 50 47 46 48 48 47 45 42 41 36 26 16 13 16 22 28 39 43 45 43 40 39 37 35 32 31 28
68 61 61 53 52 51 50 53 53 52 50 46 43 35 19 16 13 12 15 20 30 37 41 40 36 33 31 28 27 26 24 24 24
67 59 53 50 50 50 42 40 56 55 49 40 24 17 22 19 19 36 48 46 42 38 34 31 28 28 30 33 34 35 35 36 36
58 53 50 51 50 47 30 42 47 40 34 20 18 23 23 28 42 47 47 45 39 34 34 36 39 41 41 41 40 40 40 40 39
53 52 53 51 50 24 32 43 44 41 26 14 23 26 26 41 50 49 48 42 44 46 45 43 42 39 39 40 43 44 44 41 37
58 57 55 53 52 48 48 51 48 30 16 16 26 28 34 48 49 45 46 47 46 42 42 45 46 44 45 47 46 42 36 34 31
64 62 58 53 51 56 60 60 48 23 14 23 33 44 50 52 47 48 51 49 50 53 53 51 51 51 50 44 41 37 33 32 31
70 66 61 55 51 54 56 56 42 17 17 28 38 46 52 51 53 53 51 52 55 56 60 63 60 55 50 45 41 38 36 34 33
74 67 62 53 49 50 49 51 32 15 27 37 47 55 53 50 45 50 51 57 64 65 63 60 56 53 49 46 43 40 36 32 28
62 59 53 48 46 45 46 42 16 20 37 50 55 56 54 51 52 53 58 67 53 58 59 61 62 55 46 38 32 30 31 33 35

GFSFLT1_500_rhum_012.txt.gz
RH
18 17 18 20 23 26 26 28 29 29 29 29 29 29 30 30 29 29 29 30 29 29 30 30 30 30 26 13 13 15 14 5 10
29 28 29 28 29 31 32 34 35 35 35 35 34 35 34 34 35 36 37 37 38 38 38 38 37 36 34 29 25 15 14 16 12
32 31 32 32 33 35 37 37 36 36 35 34 33 32 32 31 30 29 28 27 27 27 27 27 27 28 31 30 29 25 23 18 16
33 32 32 37 39 38 37 35 33 32 31 33 33 35 37 33 31 30 29 28 26 25 27 26 27 28 25 16 14 21 25 24 24
35 37 38 39 40 38 36 35 34 37 39 35 36 39 33 34 35 28 26 24 22 19 17 17 14 14 22 24 22 13 7 8 14
40 37 39 41 43 39 38 37 38 44 32 26 31 34 34 37 38 31 27 26 23 20 16 11 10 10 6 11 16 16 14 10 6
50 42 40 43 45 43 44 39 40 46 28 33 32 33 40 40 34 30 35 32 25 20 16 16 13 12 12 24 28 22 20 23 20
54 54 45 41 48 51 49 43 39 48 33 37 43 44 44 44 43 44 37 31 27 26 24 21 21 22 18 18 20 26 29 30 31
52 55 57 53 52 59 55 48 39 48 37 37 44 48 46 44 38 34 34 34 30 27 24 22 19 19 22 26 30 28 27 29 31
63 62 59 60 60 65 56 50 46 48 44 41 47 49 48 45 39 35 25 21 18 14 12 12 14 18 23 31 38 42 43 41 40
56 65 68 63 58 58 54 50 50 50 50 51 56 54 48 42 34 20 27 22 14 13 16 21 23 24 27 31 36 36 34 32 30
71 74 75 70 64 57 52 49 50 49 41 53 56 50 43 30 18 27 24 19 24 32 38 40 40 40 38 37 34 32 30 29 30
76 76 72 69 62 50 49 50 50 46 30 52 48 40 33 17 21 27 24 29 39 43 44 46 44 40 38 37 36 38 39 40 40
76 75 66 59 50 49 51 52 45 27 41 44 45 42 25 16 21 27 28 37 44 44 45 42 42 43 44 42 41 41 40 38 36
78 73 57 52 50 53 54 52 51 41 47 51 50 37 20 15 25 28 32 44 45 43 42 42 38 34 34 35 36 37 38 40 41
80 75 55 55 58 57 55 52 51 55 59 60 57 40 16 16 29 34 39 44 44 42 39 36 36 38 45 46 45 46 45 46 47
76 77 68 61 64 64 60 56 51 50 51 52 55 38 20 21 33 40 44 46 46 48 46 43 45 50 52 49 47 46 46 43 41
72 79 76 71 72 72 68 58 52 50 50 49 46 28 20 32 42 49 54 55 54 51 51 52 57 63 59 51 49 47 44 41 40
66 78 81 70 67 74 66 54 48 48 48 46 40 18 22 27 38 54 56 60 61 55 55 68 75 67 58 53 48 44 43 49 53
56 60 56 54 54 52 47 44 45 48 44 40 22 21 27 31 36 46 52 56 64 64 76 82 71 63 58 51 53 58 55 53 51

GFSFLT1_500_rhum_015.txt.gz
RH
13 14 14 15 14 17 22 22 23 27 30 32 32 32 32 33 33 32 32 32 32 32 34 35 35 34 33 35 33 30 28 14 14
20 20 21 21 20 21 22 27 31 33 34 34 34 33 32 31 31 30 29 30 31 30 30 31 30 32 32 33 34 36 35 28 21
27 27 28 28 30 31 32 35 36 36 34 33 32 33 35 36 33 32 32 32 31 31 30 30 29 30 29 28 28 24 22 27 29
32 31 31 32 32 36 37 37 36 35 33 30 30 30 31 34 34 37 36 31 28 26 25 22 20 18 19 19 18 24 26 18 13
43 35 34 34 38 40 40 38 36 35 32 34 31 23 25 32 38 38 34 34 31 28 25 23 20 18 16 11 9 7 13 21 20
52 44 38 40 40 42 43 40 38 38 33 38 30 28 25 25 30 36 39 35 28 29 29 25 22 19 18 14 12 12 14 10 11
57 58 48 41 40 41 44 43 43 42 36 40 39 36 39 36 33 35 31 34 41 36 31 28 27 24 21 22 21 18 20 24 29
57 56 58 56 50 43 43 50 51 44 39 39 46 34 42 45 46 48 45 39 33 32 31 26 24 24 23 21 20 22 23 22 21
62 63 54 51 54 56 52 49 51 49 44 41 48 39 38 45 47 49 43 36 33 25 26 21 15 12 12 13 15 20 24 27 30
41 51 56 53 53 53 57 55 59 56 45 43 49 50 44 46 46 47 39 36 22 27 22 19 15 13 14 14 11 13 19 25 33
46 50 49 53 57 62 59 56 58 54 47 47 49 46 47 48 50 48 39 22 24 28 20 16 16 19 25 27 30 34 36 38 36
35 56 60 66 73 76 74 66 61 54 50 49 50 45 36 53 49 40 35 21 23 26 19 18 22 27 32 34 34 34 36 37 36
45 48 65 81 76 76 72 70 62 48 50 51 47 32 44 45 45 42 28 19 21 26 22 23 30 34 37 38 40 39 41 43 44
49 54 69 83 76 75 66 58 49 50 52 51 43 35 45 53 55 53 40 17 19 26 25 24 32 36 38 40 40 39 35 33 33
38 50 60 75 79 75 57 50 51 55 54 52 52 53 55 57 58 58 50 27 18 26 27 27 34 39 38 35 32 29 29 32 36
38 52 50 71 82 79 59 55 59 60 59 57 53 52 50 52 53 51 48 26 21 28 28 27 30 31 33 34 34 38 45 46 44
30 34 44 59 80 80 73 69 69 71 74 69 58 52 51 51 52 53 44 24 26 28 27 28 31 34 35 40 49 51 49 47 47
30 25 42 55 73 79 80 81 78 74 81 80 56 45 46 52 49 40 22 22 26 28 33 38 37 39 48 54 53 52 54 51 47
42 31 41 56 64 69 81 84 78 67 60 51 43 43 46 46 37 24 23 25 34 45 50 49 52 56 58 59 58 53 51 47 38
51 31 28 45 55 59 58 50 46 45 41 38 38 39 38 32 24 22 26 23 31 36 41 56 64 70 63 52 52 49 39 42 49

GFSFLT1_500_rhum_018.txt.gz
RH
12 12 12 12 13 14 14 15 20 21 22 23 26 29 30 29 29 28 30 32 33 33 34 34 35 36 36 36 37 36 37 36 35
15 18 20 19 18 18 18 20 23 26 27 30 32 34 34 34 33 32 31 31 31 29 29 28 29 29 30 30 30 30 29 27 27
21 21 24 25 27 29 30 30 31 32 34 35 34 33 31 30 32 34 36 36 33 32 31 30 29 27 24 22 21 22 23 24 28
32 32 30 31 32 32 33 34 35 36 36 35 32 30 27 22 19 28 32 34 35 36 34 28 27 24 22 23 20 16 12 12 11
35 40 37 34 33 34 38 40 40 39 37 36 33 30 27 21 18 22 31 39 40 36 34 30 26 26 25 22 23 18 17 10 8
34 41 42 39 36 36 38 41 44 42 40 39 35 32 34 33 32 32 28 34 40 39 33 31 33 29 27 26 24 24 23 22 20
35 42 44 46 45 39 38 40 41 44 45 46 39 33 39 32 40 44 42 38 36 38 41 35 33 30 27 25 24 24 22 22 22
32 50 51 48 50 55 52 46 43 42 44 50 42 40 36 42 35 42 45 45 42 39 38 34 25 27 24 17 13 12 15 18 18
28 28 36 59 60 58 54 54 55 55 53 49 47 45 39 44 48 39 43 48 46 38 36 25 27 25 18 16 14 12 12 11 12
35 31 30 38 39 44 43 44 46 48 54 57 57 52 43 44 49 49 45 47 46 40 34 24 27 24 15 15 16 18 20 24 28
38 38 34 30 36 38 37 41 46 54 59 58 58 50 47 48 49 42 44 48 48 40 34 22 24 28 22 15 18 20 21 22 22
36 35 38 38 36 37 46 65 67 72 71 70 64 52 51 50 46 34 47 48 46 42 35 19 21 27 29 21 16 21 26 26 27
35 32 38 39 40 45 51 65 75 74 72 66 54 50 52 51 37 37 47 55 57 57 56 45 24 24 28 25 20 24 29 31 35
34 35 39 40 37 41 51 61 76 76 66 51 50 54 54 52 53 52 52 54 56 57 56 53 33 25 29 27 23 25 31 33 34
42 41 37 34 32 39 46 49 76 79 69 53 54 60 60 59 56 54 54 53 52 53 54 50 29 26 29 25 23 25 28 28 28
52 55 41 34 30 36 40 49 72 82 78 63 66 70 73 75 72 56 50 50 52 54 50 37 26 28 27 21 22 26 28 29 28
61 60 56 38 36 26 32 48 61 78 81 79 77 81 70 70 69 60 46 47 50 48 39 27 29 29 22 22 26 28 28 33 38
62 62 55 45 46 27 30 49 58 71 76 78 81 77 67 59 51 45 42 44 42 33 25 29 28 21 21 26 29 31 39 48 52
62 63 59 53 53 37 32 37 52 63 67 69 61 49 45 38 35 36 30 26 24 26 28 26 23 23 29 34 39 43 53 53 48
64 70 68 53 45 50 47 36 33 39 46 51 47 38 27 20 16 14 20 24 28 28 25 22 30 40 45 51 54 53 51 48 45

GFSFLT1_500_rhum_021.txt.gz
RH
7 8 9 9 10 11 12 14 15 15 16 16 16 20 22 23 24 24 26 28 29 29 30 30 31 32 35 35 33 32 32 32 32
9 10 12 14 15 16 17 17 17 19 21 24 28 29 29 28 32 32 32 33 33 32 32 32 32 32 33 33 32 30 29 28 28
12 14 17 22 24 24 26 28 29 30 31 33 35 34 33 29 26 23 21 24 30 35 36 36 34 30 29 27 25 22 21 21 17
14 18 22 27 29 32 33 33 33 36 36 37 37 35 32 30 28 21 16 17 24 34 37 36 35 33 31 29 26 25 24 24 18
18 24 27 29 31 32 33 35 37 40 40 39 39 37 36 34 34 30 29 23 22 30 40 40 38 34 29 30 27 25 23 21 22
23 29 33 34 36 37 35 36 39 42 43 43 42 41 40 39 35 35 32 35 35 33 35 40 36 37 36 32 30 29 27 26 26
25 26 30 35 41 44 44 38 38 40 42 43 43 44 43 44 40 38 36 38 45 45 44 42 37 33 33 25 26 23 19 15 16
32 31 26 28 35 42 45 46 51 50 49 47 48 44 44 51 47 41 43 41 38 45 45 44 42 39 24 28 28 17 15 15 12
37 44 40 33 28 28 33 44 50 52 49 49 50 54 55 55 56 50 44 49 48 42 46 48 46 37 23 27 28 18 14 14 16
56 40 41 37 34 31 29 33 34 35 34 40 45 51 52 60 60 52 47 51 49 46 47 46 47 36 24 22 28 28 24 15 17
64 38 42 40 35 34 33 31 31 32 40 54 60 63 62 66 62 54 52 51 44 36 53 52 44 38 26 21 27 32 32 27 18
38 36 38 37 34 31 31 31 33 37 44 57 69 72 72 69 62 51 53 47 34 44 49 56 58 58 56 49 36 31 32 30 25
37 41 45 36 35 35 38 37 34 34 43 51 69 75 63 55 51 54 54 53 56 55 55 56 57 58 56 55 45 33 32 31 26
46 48 46 37 39 37 34 35 32 34 42 42 64 76 63 52 55 60 62 60 57 55 55 54 53 53 55 54 46 32 31 31 26
45 49 54 54 50 51 44 32 30 33 37 44 55 75 76 60 63 70 74 77 76 73 56 50 51 52 54 52 37 29 32 30 24
56 52 53 58 58 60 56 42 34 29 29 42 51 67 81 81 78 74 78 73 69 61 59 49 47 52 50 39 29 32 32 25 19
50 54 57 58 64 61 55 50 43 35 26 39 53 61 71 77 77 75 70 60 54 48 44 42 41 38 31 29 33 31 24 19 21
24 36 40 61 60 59 59 55 52 49 33 34 39 52 60 62 60 52 48 45 35 28 29 24 21 21 28 32 31 22 19 26 31
22 23 34 46 59 61 64 64 51 52 54 46 38 41 44 50 49 41 23 14 12 12 15 20 28 32 33 29 21 26 34 38 43
22 24 32 36 59 70 68 60 56 43 44 48 47 43 39 36 30 18 18 23 30 36 36 34 34 32 25 29 40 46 49 52 48

GFSFLT1_500_rhum_024.txt.gz
RH
7 8 8 8 9 10 11 11 13 15 16 17 18 18 21 24 25 27 27 28 29 30 31 30 31 31 33 34 32 32 31 32 32
6 8 9 10 11 12 13 14 15 17 18 20 23 26 32 33 32 28 23 23 25 26 31 34 35 33 33 33 34 33 29 27 25
9 9 10 12 14 18 21 24 25 26 29 28 30 33 35 35 32 30 26 20 17 14 17 27 35 36 37 36 32 28 29 25 26
11 11 15 17 22 24 26 29 31 31 34 35 35 38 38 37 36 35 32 26 28 24 20 22 35 40 39 36 33 30 28 27 26
15 15 21 26 32 33 33 34 34 35 38 40 39 41 41 40 39 38 36 35 33 34 31 29 29 40 40 38 32 35 33 31 30
18 18 21 30 35 39 42 39 38 37 39 43 44 44 46 46 45 44 42 39 40 36 41 40 37 35 34 41 36 32 27 25 24
26 26 24 25 30 39 44 50 46 40 39 40 41 43 43 43 45 45 50 48 42 46 41 43 45 44 41 35 36 27 29 28 17
35 44 35 32 32 29 28 35 45 46 45 46 47 53 54 54 55 52 54 56 51 46 51 44 42 46 46 44 40 24 28 28 21
42 72 50 46 42 36 33 32 29 29 33 38 37 41 42 47 51 55 61 60 58 51 51 50 50 49 48 51 42 24 24 29 30
35 41 46 48 38 39 37 34 33 32 31 31 31 35 42 50 52 58 61 61 62 54 53 52 46 42 52 52 39 27 20 28 35
28 33 61 67 39 35 38 35 32 31 31 32 34 41 49 61 68 70 70 64 62 53 54 47 34 43 55 47 48 44 31 34 36
34 36 36 35 36 40 41 36 35 36 37 36 36 40 49 60 72 70 61 55 52 53 54 55 50 54 56 60 61 60 58 55 47
43 40 35 41 46 44 42 33 34 33 35 36 34 40 44 50 72 71 54 54 57 58 60 58 56 54 54 54 54 54 54 54 51
42 40 42 45 45 44 47 49 50 52 40 32 31 36 40 45 64 79 64 56 64 68 72 74 74 72 67 55 52 54 54 55 54
48 47 47 46 45 46 49 55 59 56 52 44 36 31 32 41 52 70 82 80 80 80 80 81 77 71 64 70 65 48 50 56 50
39 47 49 48 50 51 54 54 53 56 54 52 46 40 26 32 51 60 70 78 81 79 75 69 59 55 52 49 47 44 47 43 33
34 23 22 24 30 37 47 58 61 59 58 56 52 52 41 33 34 41 51 54 53 51 50 48 43 39 30 29 33 28 24 23 29
37 37 23 20 36 33 32 39 58 63 63 62 55 44 47 50 48 47 46 46 46 41 34 25 14 12 12 13 18 26 32 34 34
31 32 27 20 24 25 31 38 59 64 68 62 61 52 46 44 45 44 41 38 35 32 31 35 37 39 40 38 37 35 34 32 28
57 50 44 35 33 25 36 46 48 57 66 62 64 58 56 54 49 45 41 40 44 49 50 47 45 42 41 38 35 32 30 34 39

GFSFLT1_500_rhum_027.txt.gz
RH
6 6 6 7 8 8 9 10 11 13 16 20 23 24 22 24 26 29 30 29 24 22 23 27 30 32 33 32 33 33 34 34 32
10 8 7 8 10 11 12 13 14 14 16 19 23 25 27 30 33 33 32 32 29 22 19 16 15 20 31 36 36 34 32 31 28
15 12 10 11 13 17 18 20 22 23 23 25 30 32 35 35 35 35 36 36 34 30 26 26 22 18 22 36 40 39 36 33 31
15 14 14 12 15 19 20 24 27 28 31 33 35 36 38 39 38 39 39 39 39 36 34 32 33 26 25 33 41 40 37 32 30
16 16 16 15 17 22 27 30 31 32 34 36 37 41 42 43 42 42 44 45 45 44 40 38 38 40 33 32 37 39 34 36 31
20 22 22 21 20 21 27 33 40 40 37 40 40 42 45 46 47 45 45 45 47 51 48 43 45 44 45 43 41 42 38 36 27
20 21 23 27 28 26 26 29 34 41 44 44 42 40 41 42 42 42 42 46 50 50 58 52 47 50 44 46 45 41 40 39 26
19 20 27 36 37 33 35 34 33 30 28 31 37 44 46 47 46 46 48 46 50 55 56 59 54 50 53 51 45 45 46 44 24
24 24 25 45 55 44 38 36 36 35 34 32 30 31 32 33 32 31 32 34 37 45 57 61 61 54 53 52 48 49 48 49 32
30 29 30 30 34 53 54 42 36 35 33 32 32 32 33 34 35 37 41 50 57 63 62 63 64 55 53 46 38 48 57 47 34
36 34 32 30 31 38 44 35 36 38 34 32 34 35 36 38 38 42 44 56 67 68 64 61 55 54 54 43 42 52 51 50 50
40 39 40 37 35 39 37 41 41 39 34 33 32 34 38 36 35 44 42 54 74 66 55 54 55 53 53 52 53 55 58 60 61
45 46 44 41 40 37 43 45 45 43 42 46 48 46 37 34 33 41 44 48 71 72 54 58 63 66 70 71 73 74 68 57 53
54 52 46 48 45 45 44 43 44 44 45 51 53 53 51 45 39 33 34 44 54 75 79 70 71 75 78 80 79 74 69 68 70
39 46 50 48 50 50 47 46 45 47 51 52 52 54 54 50 47 43 28 32 49 60 69 75 76 76 75 72 64 55 54 57 57
32 37 37 41 42 41 43 38 38 38 45 52 56 59 57 53 48 49 47 38 34 34 41 48 48 47 46 47 46 34 31 36 35
23 31 30 30 27 19 19 18 24 30 29 32 41 51 56 56 57 46 40 43 46 46 44 41 41 38 34 32 30 24 18 13 11
33 37 36 45 47 37 22 19 23 22 28 26 35 52 59 61 60 56 52 50 49 46 44 41 38 36 35 36 39 41 42 41 40
63 51 52 56 46 38 34 25 27 24 26 36 39 34 48 60 61 56 54 52 50 46 43 42 41 41 41 43 44 44 42 40 39
69 72 72 61 62 63 55 42 38 31 31 42 40 36 35 39 49 50 54 52 48 46 42 41 41 40 42 42 42 41 40 36 33

GFSFLT1_500_rhum_030.txt.gz
RH
10 8 6 6 6 7 8 10 11 12 13 15 16 19 21 21 20 22 24 30 30 29 28 24 21 19 16 18 32 36 35 34 34
16 16 13 11 10 8 8 9 13 15 17 17 18 20 20 20 24 28 30 33 33 33 34 33 27 26 24 20 21 31 40 39 37
12 13 14 14 13 12 12 13 15 19 23 24 24 25 28 29 32 34 35 37 36 37 38 37 36 33 30 28 22 27 40 41 39
16 16 15 15 15 14 16 18 21 27 30 30 33 35 36 37 38 39 39 40 39 40 42 43 42 38 36 36 33 28 38 43 40
17 19 20 21 20 18 18 21 24 31 34 36 37 37 37 39 41 42 43 44 46 46 43 43 47 46 42 42 44 42 35 35 41
17 16 18 19 21 23 23 23 25 27 33 39 40 39 38 38 41 44 45 47 46 43 41 45 49 54 51 46 48 46 48 42 40
18 17 17 18 21 23 23 26 29 28 28 28 33 39 40 41 41 42 43 44 45 45 46 45 45 52 56 53 50 54 51 48 47
23 22 22 20 19 20 24 30 33 32 33 32 32 31 30 29 29 31 32 36 32 32 32 34 34 37 51 59 58 52 53 52 52
25 26 26 26 24 27 33 34 33 37 36 34 33 33 32 32 32 31 32 33 34 33 35 43 50 54 54 61 63 54 54 48 43
28 28 29 29 28 28 28 28 41 63 45 31 31 33 32 32 32 32 34 35 35 38 38 52 64 66 64 61 55 52 49 37 44
30 32 33 32 31 32 31 32 35 32 32 38 35 33 30 30 29 30 33 34 35 40 37 49 69 63 57 54 53 55 56 56 58
29 33 37 37 36 35 36 36 36 35 40 40 38 36 36 39 42 42 35 31 31 38 40 43 70 62 57 59 62 69 72 73 72
21 26 31 40 45 43 42 40 39 40 41 38 42 41 42 51 52 50 48 44 38 33 33 44 55 74 65 63 68 71 73 75 74
24 18 26 38 48 50 47 44 43 43 42 44 45 41 49 50 49 48 47 44 43 40 29 32 44 55 66 73 74 73 72 70 70
25 19 22 35 46 51 47 48 45 44 37 40 30 32 36 38 42 48 52 50 46 45 45 40 35 34 39 46 49 48 46 46 47
38 36 59 34 32 32 39 41 28 22 21 21 24 27 26 24 25 33 44 52 57 49 38 36 38 40 40 38 36 35 34 32 32
78 49 30 37 29 27 26 30 29 21 18 18 25 22 24 28 30 35 48 56 56 52 50 48 47 45 43 40 38 36 34 34 34
72 68 51 26 27 31 36 46 51 43 29 19 21 24 24 28 37 35 35 44 49 48 46 45 46 45 42 39 37 37 36 36 36
70 79 79 72 58 61 51 56 60 48 44 35 33 32 28 32 38 36 36 30 33 34 38 45 46 46 44 40 40 40 40 40 41
58 86 96 93 95 97 92 81 66 73 71 61 48 41 38 41 41 37 41 36 32 36 40 44 44 44 42 42 44 44 42 39 42

GFSFLT1_500_rhum_033.txt.gz
RH
14 13 12 10 8 7 7 7 7 8 10 11 12 14 16 17 20 22 20 22 26 29 30 30 30 30 26 23 22 18 17 26 36
9 10 12 14 15 14 12 10 10 10 10 11 14 15 17 18 20 23 27 30 32 32 34 35 35 35 34 33 29 27 21 21 31
9 10 12 11 12 13 14 13 13 13 13 14 18 23 24 26 29 32 34 36 36 37 37 40 40 40 40 40 37 36 33 26 34
14 13 14 15 14 14 15 15 16 18 20 22 24 26 29 32 34 36 38 38 38 40 41 43 42 39 38 43 44 40 42 41 33
14 14 13 14 18 21 21 21 21 19 19 25 29 32 33 35 37 38 40 39 40 42 43 43 41 41 44 49 50 46 45 46 47
15 15 14 12 12 15 18 19 21 21 22 23 24 25 31 34 36 38 40 40 40 40 40 40 44 46 43 47 54 54 49 49 50
17 18 18 15 15 16 17 15 18 21 25 26 28 28 28 28 28 29 30 31 31 33 31 32 32 32 33 35 41 58 58 53 52
22 22 22 21 20 19 17 19 18 22 24 29 31 31 32 32 32 32 31 30 30 30 31 32 33 33 37 42 46 50 60 63 57
24 25 24 24 25 25 26 24 23 27 26 31 37 38 31 25 27 27 30 31 30 31 32 33 34 36 39 48 54 60 64 63 55
20 19 20 22 25 25 28 29 28 26 30 41 41 28 28 30 30 29 28 28 27 26 28 32 32 35 38 58 64 62 56 54 53
13 14 14 18 20 22 26 29 30 30 32 33 32 33 36 34 33 34 31 32 35 37 34 29 30 36 35 49 64 60 56 53 55
9 8 10 19 18 21 26 31 33 35 38 34 34 37 35 32 38 33 40 49 49 46 42 41 34 31 34 41 59 63 62 64 68
10 12 11 17 19 20 26 32 37 40 40 38 38 36 37 37 34 33 40 42 43 42 45 41 40 35 30 36 49 62 68 69 68
13 16 17 20 19 17 21 28 34 42 42 38 35 34 27 28 24 24 20 19 21 28 35 37 43 43 42 37 37 40 49 57 59
54 34 30 25 20 16 19 19 24 30 31 31 28 21 18 20 24 21 22 20 19 25 34 43 51 46 38 35 35 37 38 38 38
72 62 63 43 39 46 39 24 22 20 22 24 20 17 17 19 24 19 20 28 27 21 28 38 46 47 47 46 44 43 41 39 37
73 80 74 80 79 49 53 35 28 25 25 32 34 27 24 20 20 23 22 26 32 30 26 20 23 26 27 28 34 39 38 37 35
49 66 82 79 82 76 50 36 27 30 33 40 48 44 32 30 31 32 30 32 37 33 34 30 25 26 29 30 31 34 34 35 36
26 32 42 80 90 84 74 69 56 49 54 49 60 53 61 59 52 45 41 41 44 41 39 38 34 33 35 36 36 34 34 35 36
34 43 46 49 66 81 92 95 94 96 92 89 86 75 74 74 80 73 57 49 52 51 50 45 41 39 38 40 40 40 40 43 43

GFSFLT1_500_rhum_036.txt.gz
RH
7 8 11 12 12 12 9 8 8 8 7 8 8 9 10 12 14 15 18 18 20 24 27 30 32 32 32 33 32 30 28 25 20
5 5 5 6 8 10 12 13 13 13 12 12 11 11 13 14 16 18 20 23 25 30 34 34 35 35 37 36 36 35 34 31 29
6 6 6 6 8 9 9 10 11 12 13 14 14 15 18 21 23 24 27 31 33 34 36 36 38 39 42 42 40 39 43 38 37
9 9 10 10 10 11 12 15 16 16 16 16 16 17 21 23 25 28 31 33 36 37 38 40 40 43 43 42 42 46 48 46 42
12 12 12 12 12 12 14 15 14 16 17 18 18 20 22 25 27 28 31 32 34 36 40 40 38 39 40 44 45 48 53 53 50
14 13 13 14 13 13 11 11 13 12 14 17 19 23 25 26 28 29 30 31 33 34 35 36 36 37 34 32 32 33 40 55 59
12 13 15 16 16 15 14 13 15 15 15 17 22 25 28 30 30 30 30 30 30 30 30 30 31 31 32 31 30 35 43 45 59
13 15 15 17 19 17 17 19 18 18 20 19 23 24 28 31 32 30 26 26 26 25 28 29 30 30 31 32 32 34 45 52 58
14 19 19 18 18 18 18 20 21 24 23 22 24 26 28 28 28 24 25 26 26 26 27 26 25 26 28 30 34 34 48 57 61
11 17 17 16 16 14 17 20 23 25 25 25 24 26 30 29 29 31 31 31 31 30 30 30 35 35 30 29 34 34 46 60 61
9 10 9 9 9 10 13 17 19 21 22 25 28 31 33 32 34 34 29 34 24 34 46 48 46 42 40 36 31 32 38 56 61
16 10 8 7 6 7 10 14 14 16 22 30 32 34 35 36 34 31 33 24 21 28 31 33 36 37 40 38 36 31 33 40 54
33 24 13 12 10 9 9 14 12 16 24 32 33 34 35 34 31 26 21 18 18 16 15 15 16 19 27 34 34 39 38 35 37
39 43 29 17 12 13 15 18 15 14 20 30 31 33 34 29 26 20 19 20 19 22 19 14 16 19 25 35 40 39 36 34 35
42 44 57 60 40 26 23 24 20 16 21 22 24 28 26 21 17 15 16 22 18 18 25 24 20 18 21 26 33 40 42 42 42
32 45 50 58 69 57 50 42 32 40 34 23 24 21 22 21 18 18 17 17 18 20 20 23 27 26 21 19 20 22 23 23 27
30 32 44 58 63 79 76 80 73 51 54 41 30 24 27 33 37 33 30 24 27 29 28 29 31 30 30 28 25 25 27 28 28
26 33 34 46 64 75 86 86 86 83 68 38 31 30 32 37 44 47 39 46 48 46 42 38 37 39 38 37 34 31 31 32 34
14 26 44 34 45 42 82 92 99 95 83 69 61 42 40 51 56 59 64 69 74 76 71 62 48 49 48 47 42 39 36 36 37
16 39 60 55 45 45 45 59 83 87 85 92 92 92 90 88 96 96 94 88 88 81 78 84 84 65 55 54 53 46 42 40 41